CAPE
163 7 0 0 59 3 0 0 0 0 0 0 0 0 0 0 0 0 0 0 0 0 0 0 0 0 0 0 0 0 0 0 0 0 0 0 0 0 0 0 0 0 0
2 0 0 1 1 0 0 0 0 0 0 0 0 0 0 0 0 0 0 0 0 0 0 0 0 0 0 0 0 0 0 0 0 0 0 0 0 0 0 0 0 0 0
21 0 0 0 0 0 0 0 0 0 0 0 0 0 0 0 0 0 0 0 0 0 0 0 0 0 0 0 0 0 0 0 0 0 0 0 0 0 0 0 0 0 0
0 0 1 1 0 1 0 0 0 0 0 0 0 0 0 0 0 0 0 0 0 0 0 0 0 0 0 0 0 0 0 0 0 0 0 0 0 0 0 0 0 0 0
0 0 0 0 1 1 0 0 0 0 0 0 0 0 0 0 0 0 0 0 0 0 0 0 0 0 0 0 0 0 0 0 0 0 0 0 0 0 0 0 0 0 0
0 0 0 0 0 0 0 0 0 0 0 0 0 0 0 0 0 0 0 0 0 0 0 0 0 0 0 0 0 0 0 0 0 0 0 0 0 0 0 0 0 0 0
0 0 1 0 0 0 0 0 0 0 0 0 0 0 0 0 0 0 0 0 0 0 0 0 0 0 0 0 0 0 0 0 0 0 0 0 0 0 0 0 0 0 0
0 0 0 0 0 0 0 0 0 0 0 0 0 0 0 0 0 0 0 0 0 0 0 0 0 0 0 0 0 0 0 0 0 0 2 0 0 0 0 0 0 0 0
0 0 0 0 0 0 0 0 0 0 0 0 0 0 0 0 0 0 0 0 0 0 0 0 0 0 0 0 0 0 0 0 0 0 0 0 0 0 0 0 0 0 0
0 0 0 0 0 0 0 0 0 0 0 0 0 0 0 0 0 0 0 0 0 0 0 0 0 0 0 0 0 0 0 0 0 0 0 0 0 0 0 0 0 0 0
0 0 0 0 0 0 0 0 0 0 0 0 0 0 0 0 0 0 0 0 0 0 0 0 0 0 0 0 0 0 0 0 0 0 0 0 0 0 0 0 0 0 0
0 0 0 0 0 0 0 0 0 0 0 0 0 0 0 0 0 0 0 0 0 0 0 0 0 0 0 0 0 0 0 0 0 0 0 0 0 0 0 0 0 0 0
0 0 0 0 0 0 0 0 0 0 0 0 0 0 0 0 0 0 0 0 0 0 0 0 0 0 0 0 0 0 0 0 0 0 0 0 0 0 0 0 0 0 0
0 0 0 0 0 0 0 0 0 0 0 0 0 0 0 0 0 0 0 0 0 0 0 0 0 0 0 0 0 0 0 0 0 0 0 0 0 0 0 0 0 0 0
0 0 0 0 0 0 0 0 0 0 0 0 0 0 0 0 0 0 0 0 0 0 0 0 0 0 0 0 0 0 0 0 0 0 0 0 0 0 0 0 0 1 1
0 0 0 0 0 0 0 0 0 0 0 0 0 0 0 0 0 0 0 0 0 0 0 0 0 0 0 0 0 0 0 0 0 0 0 0 0 1 0 1 0 1 1
0 0 8 0 0 0 0 0 0 0 0 0 0 0 0 0 0 0 0 0 0 0 0 0 0 0 0 0 0 0 0 0 0 0 0 2 0 1 1 1 0 0 0
9 15 28 16 2 0 0 0 0 0 0 0 0 0 0 0 0 0 0 0 0 0 0 0 0 0 0 0 0 0 0 0 0 0 0 2 20 26 30 36 4 0 0
10 27 47 49 14 0 0 0 0 0 0 0 0 4 0 0 0 0 0 0 0 0 0 0 0 0 0 0 0 0 0 0 0 0 9 22 28 53 54 6 0 0 0
3 30 62 127 52 64 18 7 4 0 0 0 0 1 1 0 0 0 0 0 0 0 0 0 0 0 0 0 0 0 0 0 0 0 13 37 17 0 0 0 0 0 0
14 54 107 148 65 138 133 154 139 44 0 0 0 7 3 0 0 0 0 0 0 0 0 0 0 0 0 0 0 0 0 0 4 10 19 8 0 0 0 0 0 0 0
100 137 207 173 112 149 209 281 200 16 0 1 2 6 0 0 0 0 0 0 0 0 0 0 0 0 0 0 0 0 0 3 6 10 13 1 0 0 0 0 0 0 0
245 67 146 88 104 209 228 115 64 2 4 2 5 3 2 1 0 0 0 0 0 0 0 0 0 0 0 0 0 0 0 0 0 0 0 0 0 0 0 0 0 0 0
198 76 26 72 184 173 168 82 0 0 0 7 5 2 3 0 0 0 1 0 0 0 0 0 0 0 0 0 0 0 0 0 0 0 0 0 0 0 0 0 0 0 0
98 141 146 148 78 66 19 1 1 12 12 8 14 12 5 0 0 4 2 0 0 0 0 0 0 0 0 0 0 0 0 0 0 0 0 0 0 0 0 0 0 0 0
0 0 0 0 3 1 0 11 10 7 4 8 7 1 0 0 4 4 0 0 0 0 0 0 0 0 0 0 0 0 0 0 0 0 0 0 0 0 0 0 0 0 0
CIN
-247 -70 0 0 -96 -119 0 0 0 0 0 0 0 0 0 0 0 0 0 0 0 0 0 0 0 0 0 0 0 0 0 0 0 0 0 0 0 0 0 0 0 0 0
-359 0 0 0 0 0 0 0 0 0 0 0 0 0 0 0 0 0 0 0 0 0 0 0 0 0 0 0 0 0 0 0 0 0 0 0 0 0 0 0 0 0 0
-496 0 0 0 0 0 0 0 0 0 0 0 0 0 0 0 0 0 0 0 0 0 0 0 0 0 0 0 0 0 0 0 0 0 0 0 0 0 0 0 0 0 0
0 0 0 0 0 0 0 0 0 0 0 0 0 0 0 0 0 0 0 0 0 0 0 0 0 0 0 0 0 0 0 0 0 0 0 0 0 0 0 0 0 0 0
0 0 0 0 -2 -3 0 0 0 0 0 0 0 0 0 0 0 0 0 0 0 0 0 0 0 0 0 0 0 0 0 0 0 0 0 0 0 0 0 0 0 0 0
0 0 0 0 -5 -3 0 0 0 0 0 0 0 0 0 0 0 0 0 0 0 0 0 0 0 0 0 0 0 0 0 0 0 0 0 0 0 0 0 0 0 0 0
0 -7 -4 -6 0 0 0 0 0 0 0 0 0 0 0 0 0 0 0 0 0 0 0 0 0 0 0 0 0 0 0 0 0 0 0 0 0 0 0 0 0 0 0
0 0 0 0 0 0 0 0 0 0 0 0 0 0 0 0 0 0 0 0 0 0 0 0 0 0 0 0 0 0 0 0 0 0 -28 0 0 0 0 0 0 0 0
0 0 0 0 0 0 0 0 0 0 0 0 0 0 0 0 0 0 0 0 0 0 0 0 0 0 0 0 0 0 0 0 0 0 0 0 0 0 0 0 0 0 0
0 0 0 0 0 0 0 0 0 0 0 0 0 0 0 0 0 0 0 0 0 0 0 0 0 0 0 0 0 0 0 0 0 0 0 0 0 0 0 0 0 0 0
0 0 0 0 0 0 0 0 0 0 0 0 0 0 0 0 0 0 0 0 0 0 0 0 0 0 0 0 0 0 0 0 0 0 0 0 0 0 0 0 0 0 0
0 0 0 0 0 0 0 0 0 0 0 0 0 0 0 0 0 0 0 0 0 0 0 0 0 0 0 0 0 0 0 0 0 0 0 0 0 0 0 0 0 0 0
0 0 0 0 0 0 0 0 0 0 0 0 0 0 0 0 0 0 0 0 0 0 0 0 0 0 0 0 0 0 0 0 0 0 0 0 0 0 0 0 0 0 0
0 0 0 0 0 0 0 0 0 0 0 0 0 0 0 0 0 0 0 0 0 0 0 0 0 0 0 0 0 0 0 0 0 0 0 0 0 0 0 0 0 0 0
0 0 0 0 0 0 0 0 0 0 0 0 0 0 0 0 0 0 0 0 0 0 0 0 0 0 0 0 0 0 0 0 0 0 0 0 0 0 0 0 0 0 0
0 0 0 0 0 0 0 0 0 0 0 0 0 0 0 0 0 0 0 0 0 0 0 0 0 0 0 0 0 0 0 0 0 0 0 0 0 -3 0 0 -1 0 0
0 0 -79 0 0 0 0 0 0 0 0 0 0 0 0 0 0 0 0 0 0 0 0 0 0 0 0 0 0 0 0 0 0 0 0 -7 -4 0 -3 0 0 0 0
-98 -89 -64 -52 -38 0 0 0 0 0 0 0 0 0 0 0 0 0 0 0 0 0 0 0 0 0 0 0 0 0 0 0 0 0 0 -1 -8 -16 -1 0 -21 0 0
-96 -104 -121 -86 -50 0 0 0 0 0 0 0 0 -153 0 0 0 0 0 0 0 0 0 0 0 0 0 0 0 0 0 0 0 0 -15 -17 -16 -1 -1 -46 0 0 0
-115 -96 -85 -55 -51 -52 -52 -78 -45 0 0 0 0 -45 -37 0 -140 0 0 0 0 0 0 0 0 0 0 0 0 0 0 0 0 0 -13 -7 -16 -11 0 0 0 0 0
-147 -112 -82 -62 -52 -33 -42 -58 -65 -85 0 0 0 -139 -183 0 0 0 0 0 0 0 0 0 0 0 0 0 0 0 0 0 -26 -22 -18 -44 0 0 0 0 0 0 0
-98 -63 -51 -51 -39 -43 -34 -48 -62 -120 0 -74 -125 -150 -13 0 0 0 0 0 0 0 0 0 0 0 0 0 0 0 0 -21 -17 -22 -20 -15 0 0 0 0 0 0 0
-79 -52 -43 -49 -43 -35 -42 -65 -83 -80 -105 -116 -131 -110 -99 -110 0 0 0 0 0 0 0 0 0 0 0 0 0 0 0 0 0 0 0 0 0 0 0 0 0 0 0
-62 -58 -58 -33 -32 -47 -58 -67 -11 0 0 -130 -154 -146 -155 0 0 0 -182 -27 0 0 0 0 0 0 0 0 0 0 0 0 0 0 0 0 0 0 0 0 0 0 0
-46 -34 -34 -48 -68 -85 -103 -12 -12 -111 -100 -124 -126 -141 -145 0 -19 -197 -211 0 0 0 0 0 0 0 0 0 0 0 0 0 0 0 0 0 0 0 0 0 0 0 0
0 0 0 0 -90 -36 0 -101 -101 -107 -58 -117 -133 -97 0 0 -158 -159 0 0 0 0 0 0 0 0 0 0 0 0 0 0 0 0 0 0 0 0 0 0 0 0 0
Wind_Speed
6 6 19 22 16 11 6 8 9 8 8 9 10 10 11 11 11 11 12 12 14 15 16 15 15 15 15 15 15 15 15 17 19 18 18 22 23 24 24 22 23 25 26
10 9 9 11 8 9 8 7 7 7 8 9 10 11 11 12 12 11 11 12 12 13 14 14 15 15 15 15 14 14 14 15 16 18 19 21 23 23 23 23 23 24 25
7 9 10 8 10 9 7 8 8 7 8 10 11 10 11 11 11 12 12 12 13 13 14 14 15 15 15 15 15 16 16 16 17 18 20 21 21 22 22 21 22 24 24
7 7 6 6 6 7 8 8 8 8 9 9 10 11 11 11 10 11 12 13 14 14 13 14 14 15 15 16 16 16 15 16 18 19 21 22 22 22 22 24 26 24 28
8 8 7 8 8 7 8 8 8 9 10 10 11 11 11 11 11 11 12 13 13 13 15 15 16 15 15 17 17 16 16 17 17 18 19 20 22 23 24 24 26 28 28
8 8 8 8 8 8 8 8 8 9 10 11 10 10 11 12 11 12 11 12 13 14 14 14 16 16 16 15 15 16 16 17 19 20 23 25 27 27 27 28 29 30 31
7 7 8 8 8 8 8 8 9 9 9 10 10 12 12 12 12 11 11 10 12 13 8 7 7 4 4 6 9 9 5 3 2 8 12 15 21 22 25 29 29 30 31
7 7 7 8 8 8 8 8 8 10 10 11 11 11 12 10 10 10 8 9 10 4 3 6 2 5 2 5 7 3 1 1 3 2 2 4 7 9 13 19 26 28 30
8 8 8 8 8 8 9 9 10 10 10 11 11 11 8 7 9 7 10 12 9 3 4 4 3 3 6 3 1 1 1 7 2 3 4 5 7 10 17 25 28 30 32
7 8 8 8 9 9 9 9 9 9 8 8 7 5 5 4 5 8 11 8 4 3 3 4 6 6 9 7 2 3 4 3 7 10 12 12 13 15 17 16 23 26 29
8 9 9 8 8 9 9 9 9 8 9 8 5 5 7 5 4 5 5 4 3 6 8 8 5 4 5 5 2 2 3 6 10 13 16 19 22 23 23 20 20 23 27
8 8 8 8 8 8 8 11 11 10 10 9 10 11 7 3 5 8 4 3 4 3 3 3 5 5 2 3 6 5 6 9 15 21 24 24 27 30 28 27 25 24 23
7 7 7 8 8 9 9 9 10 10 10 11 9 5 22 19 3 5 13 5 4 7 6 2 2 4 4 6 8 10 16 18 20 21 23 24 25 29 28 28 27 27 26
6 7 8 9 9 9 9 9 10 9 10 11 2 11 14 26 28 27 22 18 12 7 4 8 8 8 11 15 19 21 22 22 24 23 22 24 25 27 26 26 29 29 31
5 7 7 7 8 9 9 9 10 11 11 17 11 10 15 27 27 24 21 19 15 16 17 15 16 20 20 21 23 25 26 26 23 22 22 23 22 23 25 27 28 29 29
6 6 5 6 8 9 11 14 15 15 16 6 1 3 25 6 28 28 22 5 17 21 20 20 24 25 25 25 26 26 24 23 23 24 23 22 23 23 24 24 24 26 28
2 3 4 4 6 8 11 15 18 26 20 16 29 30 14 19 17 19 32 30 25 21 19 20 22 24 24 25 23 22 24 25 25 24 23 24 23 22 21 21 22 25 27
3 3 1 3 6 7 10 11 15 17 22 28 29 31 32 30 12 9 18 19 20 21 21 20 22 22 22 22 22 23 25 26 27 26 25 23 21 20 20 20 22 24 26
6 5 3 5 7 9 12 13 13 16 22 30 31 29 27 24 19 18 13 15 16 21 23 22 22 22 22 23 24 26 27 28 28 26 24 22 22 19 19 21 22 23 26
7 9 6 6 7 10 12 13 16 20 27 31 31 32 23 20 23 20 15 16 18 18 20 22 21 21 22 23 24 24 25 26 27 26 25 21 19 19 20 21 23 25 28
4 5 6 5 5 6 6 8 8 21 28 33 34 30 24 21 23 18 10 11 16 19 21 20 20 20 21 22 24 26 26 26 26 26 25 20 18 19 19 21 23 25 27
6 5 4 5 4 4 4 5 5 8 32 36 35 30 28 24 24 15 15 14 16 18 19 18 18 20 21 23 25 26 26 26 25 24 22 19 19 19 20 22 24 28 30
5 3 3 3 4 8 6 5 5 10 23 13 27 29 19 14 13 15 16 13 15 17 16 15 18 20 21 23 24 25 26 26 25 25 24 21 20 19 20 23 25 28 29
4 4 3 3 6 9 6 9 13 15 17 14 9 13 14 20 17 15 13 16 17 16 14 14 16 18 20 23 24 25 25 25 26 26 22 20 18 19 21 23 25 26 28
3 4 4 3 4 4 10 14 15 11 9 12 21 15 15 19 19 15 12 14 15 14 13 14 16 18 19 20 22 24 26 27 26 23 20 18 19 20 21 23 25 26 27
2 2 2 4 5 8 11 12 9 10 13 22 20 17 20 26 22 15 16 17 16 15 15 15 16 16 17 19 22 24 26 26 24 21 19 19 20 22 22 22 24 25 24
Wind_Direction
292 315 308 298 317 338 354 352 4 20 27 16 11 8 3 3 5 9 8 6 356 349 344 347 349 351 353 357 0 5 1 353 335 338 336 328 328 321 321 326 320 322 322
311 325 353 349 4 12 31 29 32 31 22 24 17 8 6 4 6 7 6 7 5 358 355 349 345 348 353 358 357 359 358 354 350 344 337 332 331 335 328 328 329 331 327
345 339 347 0 0 17 37 52 45 49 39 20 9 8 1 359 1 3 8 9 6 0 358 352 348 344 347 353 351 344 344 342 340 339 336 336 338 339 340 342 344 338 339
22 25 34 28 30 45 56 54 45 35 24 19 14 15 20 22 24 16 9 2 355 354 355 351 348 342 344 345 344 346 346 342 338 334 331 331 334 338 337 334 331 338 333
15 12 41 52 58 44 42 36 34 33 34 36 36 30 27 25 16 11 3 360 358 355 348 344 340 338 339 337 336 338 339 337 336 336 334 334 333 332 332 335 331 330 331
23 37 57 55 56 51 33 37 40 38 22 17 22 23 14 6 4 2 3 0 356 357 354 348 341 334 336 337 337 335 336 332 329 328 325 323 320 322 325 325 326 326 324
26 37 53 56 41 39 42 34 29 31 30 24 15 7 3 3 1 2 5 12 7 3 27 36 174 119 83 32 9 9 29 44 89 6 354 347 337 334 332 325 326 324 321
38 33 34 38 39 43 46 44 36 23 16 10 7 8 4 8 14 12 24 20 15 62 102 177 137 178 72 16 9 24 32 24 180 39 358 339 344 344 343 340 332 327 325
47 36 34 33 33 30 25 25 19 22 20 21 14 14 29 33 18 40 16 4 18 82 148 150 114 156 186 151 77 190 232 216 301 322 303 312 316 325 332 331 326 325 322
18 20 17 16 20 24 25 28 27 25 32 37 45 57 68 91 57 20 3 21 95 129 118 163 180 181 191 171 91 21 351 315 339 335 333 330 326 326 326 325 327 322 319
31 27 27 28 27 26 26 23 11 20 19 25 53 51 28 60 120 151 136 103 140 184 192 196 169 169 187 193 188 340 298 335 334 332 330 330 330 333 332 327 324 322 319
37 42 43 32 28 20 18 359 348 356 0 8 3 355 12 122 153 176 139 118 119 95 143 45 18 14 4 340 338 309 291 314 325 324 324 323 323 323 327 328 327 323 320
47 53 51 30 15 5 7 357 348 351 358 357 3 18 237 238 71 162 205 172 28 2 359 314 280 337 328 328 312 312 323 324 323 322 321 321 324 323 325 326 328 325 323
53 40 32 21 13 5 1 352 348 347 349 346 27 204 211 249 264 267 318 334 350 354 338 339 330 324 325 325 329 328 327 325 324 322 323 326 328 327 326 328 327 328 324
21 12 12 12 5 355 349 342 336 334 338 330 342 352 337 286 280 310 324 331 342 341 338 336 333 331 329 330 329 329 329 329 328 328 328 328 330 331 328 329 328 328 326
337 341 352 357 352 348 340 330 322 321 320 332 276 315 279 232 249 251 240 263 332 333 334 330 328 329 328 330 330 331 332 333 332 332 332 332 331 329 328 328 328 329 328
326 337 341 348 341 341 336 328 323 302 311 318 282 267 226 224 223 231 278 318 330 335 337 338 335 333 333 333 335 337 337 338 337 335 332 331 331 331 331 331 331 331 329
221 195 246 322 332 334 334 336 328 323 312 287 280 271 278 252 240 330 334 338 336 336 342 341 339 339 339 340 341 341 340 338 336 334 333 334 334 333 332 333 334 332 331
219 260 261 308 329 329 328 325 328 324 312 284 281 291 306 312 328 333 341 346 345 338 336 339 341 342 343 342 341 340 339 339 339 338 338 337 337 337 338 337 336 334 332
237 239 270 279 300 314 318 318 318 314 301 287 288 288 323 330 326 331 334 337 340 343 343 341 342 344 344 343 343 344 344 343 343 343 341 339 342 343 341 341 339 336 335
253 280 263 261 283 285 297 306 311 309 298 289 285 304 319 329 323 327 329 334 339 340 340 340 341 344 344 344 344 343 344 342 341 342 344 344 342 340 341 341 340 338 336
286 291 289 234 248 263 251 254 266 300 251 284 294 311 313 321 319 320 320 324 335 340 341 340 341 341 341 341 342 342 341 340 341 342 342 339 338 337 338 338 338 336 333
245 250 259 238 217 199 209 224 265 224 232 313 312 312 323 323 323 319 319 321 330 335 337 337 337 337 340 341 343 341 340 340 341 340 336 334 333 334 335 335 336 335 334
236 227 223 209 194 200 217 217 220 227 233 242 268 316 321 325 323 319 316 321 328 331 332 334 336 336 338 340 341 341 341 341 340 339 338 337 335 334 334 334 335 335 335
251 226 235 248 254 242 217 220 227 240 277 308 317 312 313 323 323 315 312 318 323 324 325 329 333 336 338 342 345 345 344 342 342 344 343 339 335 334 334 334 335 336 336
296 246 248 280 262 226 223 230 261 294 310 317 315 317 314 314 313 306 308 315 316 314 316 322 328 335 337 339 342 344 343 344 344 344 342 338 334 334 334 334 334 335 337